This is the latest recevied weather packets stored in our database for station/object IU0KRR-10. If no packets are shown the sender has not sent any weather packets the latest 10 day(s).
| Time | Temp. | Humidity | Pressure | Rain* | Wind** | Luminosity | Snow |
|---|---|---|---|---|---|---|---|
| 1777906728 | 28.33° C | 19% | 874.8 hPa | - | - | - | - |
| 1777905828 | 28.33° C | 20% | 874.8 hPa | - | - | - | - |
| 1777904928 | 28.33° C | 20% | 875 hPa | - | - | - | - |
| 1777904028 | 28.33° C | 21% | 874.9 hPa | - | - | - | - |
| 1777903128 | 28.33° C | 21% | 875 hPa | - | - | - | - |
| 1777902228 | 28.33° C | 21% | 875.2 hPa | - | - | - | - |
| 1777901328 | 28.33° C | 22% | 875.2 hPa | - | - | - | - |
| 1777900428 | 28.33° C | 23% | 875.4 hPa | - | - | - | - |
| 1777899528 | 28.33° C | 23% | 875.5 hPa | - | - | - | - |
| 1777898628 | 28.33° C | 23% | 875.6 hPa | - | - | - | - |
| 1777897728 | 28.33° C | 24% | 875.6 hPa | - | - | - | - |
| 1777896828 | 28.33° C | 25% | 875.7 hPa | - | - | - | - |
| 1777895927 | 27.78° C | 24% | 875.7 hPa | - | - | - | - |
| 1777895027 | 27.78° C | 25% | 875.8 hPa | - | - | - | - |
| 1777894127 | 27.22° C | 27% | 875.8 hPa | - | - | - | - |
| 1777893227 | 27.22° C | 28% | 876 hPa | - | - | - | - |
| 1777892327 | 26.67° C | 28% | 876.1 hPa | - | - | - | - |
| 1777891426 | 26.11° C | 28% | 876.1 hPa | - | - | - | - |
| 1777890526 | 25.56° C | 29% | 876.2 hPa | - | - | - | - |
| 1777889625 | 25.56° C | 29% | 876.1 hPa | - | - | - | - |
| 1777888725 | 24.44° C | 28% | 876.1 hPa | - | - | - | - |
| 1777887825 | 23.89° C | 29% | 876.1 hPa | - | - | - | - |
| 1777886925 | 23.33° C | 31% | 876.2 hPa | - | - | - | - |
| 1777886025 | 22.22° C | 32% | 876.1 hPa | - | - | - | - |
| 1777885125 | 20.56° C | 34% | 876.1 hPa | - | - | - | - |
* Rain since midnight (hover to see other rain measurements)
** Current wind speed in m/s (hover to see current wind gust speed)